Rbgn^[z[y[W
メイン
   新天体発見情報
     Comet C/2021 R7 (PANSTARRS)
投稿するにはまず登録を

スレッド表示 | 新しいものから 前のトピック | 次のトピック | 下へ
投稿者 スレッド
佐藤裕久
投稿日時: 2021-10-23 11:01
モデレータ
登録日: 2005-6-12
居住地: 日本
投稿: 2277
オンライン
Comet C/2021 R7 (PANSTARRS)

R. Weryk (西オンタリオ大学,物理および天文学科)の通報によると、9月5.43-5.45日UT、ハワイ 
Haleakalaの Pan-STARRS2と9月5.6日、Pan-STARRS1のそれぞれ1.8-m Ritchey-Chretien 反射望
遠鏡で得た画像から彗星を発見した。
また、8月7日にPan-STARRS1による発見前の観測があった。彗星の外観は9月5日にわずかに見ら
れるだけであった。
小惑星センターのNEOCP webpage (後にPCCP webpage)に公表後、L. BuzziとL. Demetz (測定は
A. Aletti, L. BuzziとG. Galli: 10月1.03-1.06日UT、120秒露出30枚のスタック, 0.50-m f/6.9 
アストログラフ, Nerpio,スペイン; 非常に集光した広い4" のコマが見え、p.a. 60°に向かって
わずかに伸びている。コマ(光度は21.5等)は約1".1で、同様な明るさの恒星より大きい)らCCD位置
観測者によって彗星状と観測された。

彗星機能の報告は次のとおり、

OC   Date        Reporter           Coma    Tail    PA          Exposures
568  2021-09-07  R. Weryk           0".4      1"    45            3x60s
I89  2021-10-01  A. Aletti          4"              60           30x120s

発見位置は次のとおり、

     2021 UT             R.A. (2000) Decl.       Mag.
     Aug.  7.52371    1 22 14.38   +20 01 14.1   22.4
           7.53800    1 22 13.84   +20 01 11.3   21.6
           7.55226    1 22 13.25   +20 01 07.6   21.4
           7.56647    1 22 12.71   +20 01 04.7   21.7
     Sept. 5.42575    0 57 44.17   +17 22 53.2   22.0
           5.43787    0 57 43.42   +17 22 47.7   21.7
           5.45005    0 57 42.65   +17 22 42.7   21.9
           5.60109    0 57 33.27   +17 21 36.4   21.4
           5.60195    0 57 33.21   +17 21 35.8   21.3

MPCの準放物線軌道要素、位置推算表は次のとおり、

Orbital elements:
    C/2021 R7 (PANSTARRS)                                                       
Epoch 2021 Apr. 16.0 TT = JDT 2459320.5                                         
T 2021 Apr. 14.73162 TT                                 Rudenko                 
q   5.6416512            (2000.0)            P               Q                  
z  +0.0006195      Peri.  140.01346     +0.85751593     +0.51073623             
 +/-0.0001633      Node   170.13955     +0.32919741     -0.63700991             
e   0.9965051      Incl.  158.85837     +0.39534225     -0.57737932             
From 47 observations 2021 Aug. 7-Oct. 7, mean residual 0".4.                    
                                                                                
    C/2021 R7 (PANSTARRS)                                                       
Epoch 2021 July 5.0 TT = JDT 2459400.5                                          
T 2021 Apr. 14.81290 TT                                 Rudenko                 
q   5.6416839            (2000.0)            P               Q                  
z  +0.0006367      Peri.  140.02242     +0.85759215     +0.51060850             
 +/-0.0001633      Node   170.13999     +0.32910207     -0.63705576             
e   0.9964078      Incl.  158.85815     +0.39525629     -0.57744171             
From 47 observations 2021 Aug. 7-Oct. 7, mean residual 0".4.                    
                                                                                
Ephemeris:
Date    TT    R. A. (2000) Decl.     Delta      r    Elong.  Phase   m1
2021 09 08    00 55 03.9 +17 03 45   4.8882  5.7395   144.6     5.8  21.5
...
2021 09 23    00 38 33.3 +14 57 22   4.7967  5.7603   162.2     3.1  21.5
...
2021 10 01    00 29 26.4 +13 41 30   4.7851  5.7721   169.4     1.8  21.5
...
2021 10 07    00 22 39.3 +12 42 04   4.7944  5.7814   170.0     1.7  21.5
2021 10 08    00 21 32.3 +12 32 01   4.7975  5.7830   169.5     1.8  21.5
2021 10 09    00 20 25.5 +12 21 57   4.8010  5.7846   168.9     1.9  21.5
...
2021 10 15    00 13 52.9 +11 21 11   4.8310  5.7942   163.5     2.8  21.6
...
2021 10 23    00 05 37.4 +10 00 31   4.8944  5.8076   154.4     4.2  21.6
...
2021 11 07    23 52 07.3 +07 36 48   5.0783  5.8340   136.2     6.8  21.7

(MPEC 2021-T162、CBET 5050)


スレッド表示 | 新しいものから 前のトピック | 次のトピック | トップ

投稿するにはまず登録を
 
© 1999 Tsutomu Seki.